Language: 


Des rapports , des résumés tant et plus, au choix de chacun....


Données Historiques de Météogheer
Journalier Rapport pour Décembre 25, 2017 Unitée:  Métrique    Impériale   Les deux
Suivant Jour »
Journalier Hebdomadaire Mensuel Annuel Sur mesure
  Max: Min: Moyenne:
Température: 9.4 °C 5.6 °C 7.9 °C
Point de rosée: 9.0 °C 5.0 °C 7.1 °C
Humidité: 98% 85% 93%
Vent: 40.4km/h 6.1km/h 16.4km/h
Rafales: 46.0km/h - -
Vent- - SSW
Pression: 1020.9 hPa 1001.9 hPa -
Pluie: 0.0 mm    
Historical Graphs
 
 
Données tabulaires pour Décembre 25, 2017
Heure Température Point de rosée Pression Vent Vent Rafales Humidité Pluie Taux (Horaire) Conditions
00:04 9.3 °C 9.0 °C 1019.9 hPa WSW 17.7 km/h 21.6 km/h 98% 0.0 mm
00:08 9.3 °C 9.0 °C 1019.9 hPa SSW 14.0 km/h 21.6 km/h 98% 0.0 mm
00:13 9.3 °C 9.0 °C 1019.9 hPa SSW 19.8 km/h 19.8 km/h 98% 0.0 mm
00:15 9.3 °C 9.0 °C 1019.9 hPa WSW 10.1 km/h 19.8 km/h 98% 0.0 mm
00:20 9.3 °C 9.0 °C 1019.9 hPa SW 11.9 km/h 19.8 km/h 98% 0.0 mm
00:25 9.3 °C 9.0 °C 1020.9 hPa SW 12.2 km/h 20.6 km/h 98% 0.0 mm
00:26 9.3 °C 9.0 °C 1020.9 hPa WSW 19.8 km/h 20.6 km/h 98% 0.0 mm
00:30 9.3 °C 9.0 °C 1020.9 hPa WSW 13.0 km/h 21.2 km/h 98% 0.0 mm
00:33 9.3 °C 9.0 °C 1020.9 hPa WSW 9.3 km/h 21.2 km/h 98% 0.0 mm
00:38 9.3 °C 9.0 °C 1020.9 hPa SSW 13.0 km/h 19.8 km/h 98% 0.0 mm
00:42 9.3 °C 9.0 °C 1020.9 hPa SW 13.7 km/h 14.0 km/h 98% 0.0 mm
00:47 9.3 °C 9.0 °C 1020.9 hPa WSW 10.5 km/h 14.0 km/h 98% 0.0 mm
00:49 9.3 °C 9.0 °C 1020.9 hPa SSW 9.7 km/h 14.0 km/h 98% 0.0 mm
00:54 9.3 °C 9.0 °C 1020.9 hPa SSW 10.1 km/h 14.0 km/h 98% 0.0 mm
00:55 9.3 °C 9.0 °C 1020.9 hPa SSW 13.7 km/h 14.0 km/h 98% 0.0 mm
01:00 9.3 °C 9.0 °C 1020.9 hPa SW 14.0 km/h 14.0 km/h 98% 0.0 mm
01:01 9.3 °C 9.0 °C 1020.9 hPa WSW 9.7 km/h 14.0 km/h 98% 0.0 mm
01:03 9.3 °C 9.0 °C 1020.9 hPa SW 12.6 km/h 15.8 km/h 98% 0.0 mm
01:07 9.3 °C 9.0 °C 1020.9 hPa SSW 13.7 km/h 18.3 km/h 98% 0.0 mm
01:08 9.4 °C 9.0 °C 1020.9 hPa SSW 11.9 km/h 18.3 km/h 98% 0.0 mm
01:13 9.4 °C 9.0 °C 1020.9 hPa SW 13.0 km/h 21.2 km/h 98% 0.0 mm
01:14 9.4 °C 9.0 °C 1020.9 hPa WSW 10.1 km/h 21.2 km/h 98% 0.0 mm
01:17 9.4 °C 9.0 °C 1020.9 hPa WSW 15.8 km/h 21.2 km/h 98% 0.0 mm
01:22 9.4 °C 9.0 °C 1020.9 hPa WSW 13.0 km/h 18.3 km/h 98% 0.0 mm
01:23 9.4 °C 9.0 °C 1020.9 hPa SW 16.3 km/h 18.3 km/h 98% 0.0 mm
01:26 9.4 °C 9.0 °C 1020.9 hPa WSW 15.8 km/h 20.6 km/h 98% 0.0 mm
01:30 9.4 °C 9.0 °C 1020.9 hPa WSW 14.3 km/h 20.6 km/h 98% 0.0 mm
01:35 9.4 °C 9.0 °C 1020.9 hPa WSW 9.7 km/h 20.1 km/h 98% 0.0 mm
01:40 9.4 °C 9.0 °C 1020.9 hPa WSW 12.6 km/h 20.9 km/h 98% 0.0 mm
01:45 9.4 °C 9.0 °C 1019.9 hPa SW 21.2 km/h 21.2 km/h 98% 0.0 mm
01:50 9.4 °C 9.0 °C 1019.9 hPa SSW 19.5 km/h 21.2 km/h 97% 0.0 mm
01:55 9.4 °C 9.0 °C 1019.9 hPa SW 15.8 km/h 21.2 km/h 97% 0.0 mm
01:57 9.4 °C 9.0 °C 1019.9 hPa SW 15.1 km/h 19.5 km/h 97% 0.0 mm
02:02 9.4 °C 9.0 °C 1019.9 hPa WSW 13.7 km/h 16.9 km/h 97% 0.0 mm
02:06 9.3 °C 9.0 °C 1019.9 hPa SSW 15.8 km/h 15.8 km/h 97% 0.0 mm
02:11 9.3 °C 9.0 °C 1019.9 hPa SSW 10.1 km/h 15.8 km/h 97% 0.0 mm
02:13 9.3 °C 9.0 °C 1019.9 hPa SSW 11.9 km/h 15.8 km/h 97% 0.0 mm
02:14 9.3 °C 9.0 °C 1019.9 hPa SSW 10.1 km/h 15.8 km/h 97% 0.0 mm
02:19 9.3 °C 9.0 °C 1019.9 hPa WSW 14.0 km/h 16.3 km/h 96% 0.0 mm
02:20 9.3 °C 9.0 °C 1019.9 hPa SW 9.3 km/h 16.6 km/h 96% 0.0 mm
02:25 9.3 °C 9.0 °C 1019.9 hPa WSW 10.1 km/h 20.9 km/h 96% 0.0 mm
02:27 9.3 °C 9.0 °C 1018.8 hPa WSW 10.5 km/h 20.9 km/h 96% 0.0 mm
02:29 9.3 °C 9.0 °C 1018.8 hPa WSW 16.9 km/h 20.9 km/h 96% 0.0 mm
02:34 9.3 °C 9.0 °C 1018.8 hPa SW 10.5 km/h 16.9 km/h 96% 0.0 mm
02:35 9.3 °C 9.0 °C 1018.8 hPa SW 12.2 km/h 19.5 km/h 96% 0.0 mm
02:40 9.3 °C 9.0 °C 1018.8 hPa SW 11.9 km/h 19.5 km/h 96% 0.0 mm
02:44 9.3 °C 9.0 °C 1018.8 hPa SSW 12.2 km/h 19.5 km/h 96% 0.0 mm
02:49 9.3 °C 9.0 °C 1018.8 hPa SSW 11.6 km/h 17.2 km/h 96% 0.0 mm
02:51 9.3 °C 9.0 °C 1018.8 hPa SW 17.7 km/h 17.7 km/h 96% 0.0 mm
02:53 9.3 °C 9.0 °C 1018.8 hPa SW 17.7 km/h 17.7 km/h 96% 0.0 mm
02:58 9.3 °C 9.0 °C 1018.8 hPa WSW 13.7 km/h 20.6 km/h 96% 0.0 mm
02:59 9.3 °C 9.0 °C 1018.8 hPa WSW 24.8 km/h 24.8 km/h 96% 0.0 mm
03:04 9.3 °C 9.0 °C 1018.8 hPa SSW 12.6 km/h 24.8 km/h 95% 0.0 mm
03:07 9.3 °C 9.0 °C 1018.8 hPa SSW 12.6 km/h 24.8 km/h 95% 0.0 mm
03:09 9.3 °C 9.0 °C 1018.8 hPa SW 11.9 km/h 24.8 km/h 95% 0.0 mm
03:14 9.3 °C 9.0 °C 1018.2 hPa SW 12.6 km/h 19.5 km/h 95% 0.0 mm
03:19 9.3 °C 9.0 °C 1018.2 hPa SSW 10.1 km/h 19.5 km/h 95% 0.0 mm
03:21 9.3 °C 9.0 °C 1018.2 hPa WSW 13.7 km/h 18.3 km/h 95% 0.0 mm
03:26 9.3 °C 9.0 °C 1018.8 hPa SSW 13.7 km/h 17.7 km/h 95% 0.0 mm
03:27 9.3 °C 9.0 °C 1018.8 hPa WSW 17.7 km/h 17.7 km/h 95% 0.0 mm
03:28 9.3 °C 9.0 °C 1018.8 hPa WSW 10.5 km/h 17.7 km/h 95% 0.0 mm
03:33 9.3 °C 9.0 °C 1018.8 hPa WSW 12.6 km/h 17.7 km/h 95% 0.0 mm
03:35 9.3 °C 9.0 °C 1018.8 hPa SSW 9.0 km/h 17.7 km/h 95% 0.0 mm
03:39 9.3 °C 9.0 °C 1018.8 hPa SW 13.0 km/h 15.8 km/h 94% 0.0 mm
03:41 9.3 °C 9.0 °C 1018.8 hPa WSW 9.0 km/h 15.8 km/h 94% 0.0 mm
03:46 9.3 °C 9.0 °C 1018.8 hPa WSW 14.3 km/h 16.9 km/h 94% 0.0 mm
03:51 9.3 °C 9.0 °C 1018.8 hPa SW 16.9 km/h 19.8 km/h 94% 0.0 mm
03:54 9.3 °C 9.0 °C 1018.8 hPa SSW 17.2 km/h 19.8 km/h 94% 0.0 mm
03:59 9.4 °C 9.0 °C 1018.8 hPa SW 14.0 km/h 19.8 km/h 93% 0.0 mm
04:02 9.4 °C 9.0 °C 1018.8 hPa SW 14.8 km/h 19.8 km/h 93% 0.0 mm
04:03 9.4 °C 9.0 °C 1018.8 hPa SSW 13.0 km/h 19.8 km/h 93% 0.0 mm
04:08 9.4 °C 8.0 °C 1018.8 hPa SSW 16.6 km/h 19.8 km/h 92% 0.0 mm
04:11 9.4 °C 8.0 °C 1018.8 hPa SW 12.6 km/h 19.8 km/h 92% 0.0 mm
04:16 9.3 °C 8.0 °C 1018.8 hPa SW 16.9 km/h 19.8 km/h 92% 0.0 mm
04:17 9.3 °C 8.0 °C 1018.8 hPa SW 13.0 km/h 19.8 km/h 92% 0.0 mm
04:18 9.3 °C 8.0 °C 1018.8 hPa SW 13.0 km/h 19.8 km/h 92% 0.0 mm
04:22 9.4 °C 8.0 °C 1018.8 hPa WSW 9.0 km/h 20.6 km/h 92% 0.0 mm
04:24 9.3 °C 8.0 °C 1018.8 hPa WSW 11.9 km/h 20.6 km/h 92% 0.0 mm
04:28 9.4 °C 8.0 °C 1018.8 hPa SW 13.7 km/h 20.6 km/h 91% 0.0 mm
04:30 9.4 °C 8.0 °C 1018.8 hPa SSW 13.0 km/h 20.6 km/h 91% 0.0 mm
04:35 9.4 °C 8.0 °C 1018.8 hPa SW 13.7 km/h 20.9 km/h 91% 0.0 mm
04:38 9.3 °C 8.0 °C 1018.8 hPa SSW 10.5 km/h 20.9 km/h 91% 0.0 mm
04:43 9.4 °C 8.0 °C 1018.8 hPa SSW 15.8 km/h 21.6 km/h 90% 0.0 mm
04:44 9.4 °C 8.0 °C 1018.8 hPa WSW 12.6 km/h 21.6 km/h 90% 0.0 mm
04:48 9.4 °C 8.0 °C 1018.8 hPa SSW 14.0 km/h 25.3 km/h 89% 0.0 mm
04:50 9.4 °C 8.0 °C 1018.8 hPa SW 15.8 km/h 25.3 km/h 89% 0.0 mm
04:55 9.4 °C 8.0 °C 1018.8 hPa SW 14.0 km/h 25.3 km/h 88% 0.0 mm
05:00 9.4 °C 8.0 °C 1018.8 hPa WSW 14.0 km/h 23.8 km/h 88% 0.0 mm
05:03 9.4 °C 8.0 °C 1018.8 hPa SW 16.3 km/h 25.3 km/h 87% 0.0 mm
05:07 9.4 °C 8.0 °C 1018.8 hPa WSW 13.7 km/h 25.3 km/h 87% 0.0 mm
05:10 9.4 °C 8.0 °C 1018.2 hPa SW 13.7 km/h 25.3 km/h 87% 0.0 mm
05:15 9.4 °C 8.0 °C 1018.2 hPa SW 20.6 km/h 20.6 km/h 87% 0.0 mm
05:20 9.4 °C 8.0 °C 1018.2 hPa SW 17.2 km/h 20.6 km/h 87% 0.0 mm
05:25 9.4 °C 8.0 °C 1018.2 hPa WSW 17.2 km/h 21.2 km/h 87% 0.0 mm
05:27 9.4 °C 8.0 °C 1018.2 hPa SSW 13.7 km/h 21.2 km/h 87% 0.0 mm
05:31 9.3 °C 8.0 °C 1018.2 hPa SSW 13.7 km/h 20.9 km/h 87% 0.0 mm
05:36 9.3 °C 8.0 °C 1018.2 hPa WSW 17.7 km/h 20.9 km/h 87% 0.0 mm
05:39 9.3 °C 8.0 °C 1018.2 hPa WSW 14.0 km/h 20.9 km/h 87% 0.0 mm
05:44 9.3 °C 8.0 °C 1018.2 hPa SW 12.2 km/h 19.8 km/h 87% 0.0 mm
05:49 9.3 °C 8.0 °C 1018.2 hPa SW 14.0 km/h 21.2 km/h 87% 0.0 mm
05:54 9.3 °C 8.0 °C 1018.2 hPa SSW 13.0 km/h 21.2 km/h 87% 0.0 mm
05:59 9.3 °C 7.0 °C 1018.2 hPa SW 11.1 km/h 18.0 km/h 86% 0.0 mm
06:00 9.3 °C 7.0 °C 1018.2 hPa SW 13.7 km/h 21.2 km/h 86% 0.0 mm
06:05 9.3 °C 8.0 °C 1018.2 hPa SSW 13.7 km/h 21.2 km/h 87% 0.0 mm
06:07 9.3 °C 8.0 °C 1018.2 hPa SSW 10.5 km/h 21.2 km/h 87% 0.0 mm
06:12 9.3 °C 8.0 °C 1018.2 hPa SSW 15.8 km/h 18.0 km/h 87% 0.0 mm
06:14 9.3 °C 8.0 °C 1018.2 hPa SSW 14.0 km/h 17.2 km/h 87% 0.0 mm
06:19 9.3 °C 8.0 °C 1018.2 hPa SSW 16.6 km/h 20.9 km/h 87% 0.0 mm
06:23 9.3 °C 8.0 °C 1018.2 hPa SW 12.6 km/h 24.8 km/h 87% 0.0 mm
06:26 9.2 °C 8.0 °C 1018.2 hPa WSW 13.0 km/h 24.8 km/h 87% 0.0 mm
06:28 9.2 °C 8.0 °C 1018.2 hPa WSW 12.6 km/h 24.8 km/h 87% 0.0 mm
06:31 9.2 °C 8.0 °C 1018.2 hPa WSW 10.8 km/h 24.8 km/h 87% 0.0 mm
06:36 9.2 °C 8.0 °C 1018.2 hPa SW 17.7 km/h 17.7 km/h 87% 0.0 mm
06:43 9.2 °C 8.0 °C 1016.8 hPa SW 16.6 km/h 24.5 km/h 87% 0.0 mm
06:45 9.2 °C 8.0 °C 1016.8 hPa SW 11.9 km/h 24.8 km/h 87% 0.0 mm
06:50 9.2 °C 8.0 °C 1016.8 hPa SSW 16.6 km/h 24.8 km/h 88% 0.0 mm
06:53 9.1 °C 7.0 °C 1016.8 hPa SW 15.8 km/h 24.8 km/h 88% 0.0 mm
06:55 9.1 °C 7.0 °C 1016.8 hPa SW 8.7 km/h 20.1 km/h 88% 0.0 mm
07:00 9.1 °C 8.0 °C 1016.8 hPa SW 9.0 km/h 18.0 km/h 89% 0.0 mm
07:05 9.0 °C 8.0 °C 1016.8 hPa SSW 11.9 km/h 15.4 km/h 90% 0.0 mm
07:06 9.0 °C 8.0 °C 1016.8 hPa SSW 11.9 km/h 15.4 km/h 90% 0.0 mm
07:11 8.9 °C 8.0 °C 1016.8 hPa SSW 11.6 km/h 15.8 km/h 91% 0.0 mm
07:12 8.9 °C 8.0 °C 1016.8 hPa SSW 13.0 km/h 15.8 km/h 91% 0.0 mm
07:17 8.8 °C 8.0 °C 1016.8 hPa SSW 11.9 km/h 15.8 km/h 92% 0.0 mm
07:19 8.8 °C 8.0 °C 1016.8 hPa SW 9.3 km/h 15.8 km/h 92% 0.0 mm
07:23 8.7 °C 8.0 °C 1016.8 hPa SW 9.0 km/h 13.0 km/h 93% 0.0 mm
07:28 8.6 °C 8.0 °C 1016.8 hPa SSW 8.7 km/h 15.8 km/h 94% 0.0 mm
07:32 8.6 °C 8.0 °C 1016.8 hPa SSW 16.3 km/h 21.2 km/h 94% 0.0 mm
07:37 8.5 °C 8.0 °C 1016.8 hPa SW 10.1 km/h 21.2 km/h 95% 0.0 mm
07:38 8.5 °C 8.0 °C 1016.8 hPa SW 14.8 km/h 21.2 km/h 95% 0.0 mm
07:43 8.5 °C 8.0 °C 1016.8 hPa WSW 15.8 km/h 19.1 km/h 95% 0.0 mm
07:44 8.5 °C 8.0 °C 1016.8 hPa SW 16.3 km/h 19.8 km/h 95% 0.0 mm
07:49 8.5 °C 8.0 °C 1016.8 hPa WSW 15.4 km/h 21.2 km/h 95% 0.0 mm
07:53 8.5 °C 8.0 °C 1016.8 hPa SW 11.9 km/h 21.2 km/h 95% 0.0 mm
07:58 8.5 °C 8.0 °C 1016.1 hPa SW 13.7 km/h 20.1 km/h 95% 0.0 mm
07:59 8.5 °C 8.0 °C 1016.1 hPa SW 14.0 km/h 20.1 km/h 95% 0.0 mm
08:04 8.5 °C 8.0 °C 1016.1 hPa WSW 13.7 km/h 16.9 km/h 95% 0.0 mm
08:05 8.5 °C 8.0 °C 1016.1 hPa SSW 10.1 km/h 19.8 km/h 95% 0.0 mm
08:10 8.5 °C 8.0 °C 1016.1 hPa SSW 13.0 km/h 19.8 km/h 95% 0.0 mm
08:13 8.5 °C 8.0 °C 1016.1 hPa SW 13.7 km/h 19.8 km/h 95% 0.0 mm
08:19 8.5 °C 8.0 °C 1016.1 hPa WSW 11.9 km/h 17.7 km/h 95% 0.0 mm
08:24 8.5 °C 8.0 °C 1016.1 hPa SSW 10.1 km/h 16.9 km/h 95% 0.0 mm
08:27 8.4 °C 8.0 °C 1016.8 hPa SSW 11.9 km/h 16.9 km/h 95% 0.0 mm
08:32 8.4 °C 8.0 °C 1016.8 hPa South 6.1 km/h 16.9 km/h 95% 0.0 mm
08:37 8.4 °C 8.0 °C 1016.8 hPa SSW 17.7 km/h 17.7 km/h 95% 0.0 mm
08:40 8.3 °C 8.0 °C 1016.8 hPa WSW 13.0 km/h 17.7 km/h 95% 0.0 mm
08:42 8.3 °C 8.0 °C 1016.8 hPa SSW 12.6 km/h 19.8 km/h 95% 0.0 mm
08:47 8.3 °C 8.0 °C 1016.8 hPa SSW 10.1 km/h 20.1 km/h 96% 0.0 mm
08:49 8.2 °C 8.0 °C 1016.8 hPa SSW 9.7 km/h 20.1 km/h 96% 0.0 mm
08:54 8.2 °C 8.0 °C 1016.8 hPa SW 12.6 km/h 20.1 km/h 96% 0.0 mm
08:55 8.2 °C 8.0 °C 1016.8 hPa SSW 13.0 km/h 20.1 km/h 96% 0.0 mm
09:00 8.2 °C 8.0 °C 1016.1 hPa SSW 12.6 km/h 17.2 km/h 96% 0.0 mm
09:03 8.2 °C 8.0 °C 1016.1 hPa SW 14.0 km/h 17.2 km/h 96% 0.0 mm
09:08 8.2 °C 8.0 °C 1016.1 hPa SW 14.3 km/h 16.9 km/h 96% 0.0 mm
09:12 8.2 °C 8.0 °C 1016.8 hPa SSW 11.6 km/h 17.2 km/h 96% 0.0 mm
09:17 8.1 °C 8.0 °C 1016.8 hPa South 15.4 km/h 17.2 km/h 96% 0.0 mm
09:22 8.1 °C 8.0 °C 1016.8 hPa SW 8.7 km/h 21.2 km/h 96% 0.0 mm
09:23 8.1 °C 8.0 °C 1016.8 hPa SSW 13.7 km/h 21.2 km/h 96% 0.0 mm
09:28 8.1 °C 8.0 °C 1016.8 hPa SSW 11.1 km/h 19.5 km/h 96% 0.0 mm
09:29 8.0 °C 8.0 °C 1016.8 hPa SW 11.6 km/h 17.2 km/h 96% 0.0 mm
09:34 8.0 °C 8.0 °C 1016.8 hPa SSW 15.8 km/h 19.8 km/h 96% 0.0 mm
09:36 8.0 °C 8.0 °C 1016.8 hPa SW 15.8 km/h 19.8 km/h 97% 0.0 mm
09:41 8.0 °C 8.0 °C 1016.8 hPa South 12.6 km/h 20.1 km/h 97% 0.0 mm
09:42 8.0 °C 8.0 °C 1016.8 hPa SSW 10.1 km/h 20.1 km/h 97% 0.0 mm
09:48 8.0 °C 8.0 °C 1016.8 hPa SSW 9.7 km/h 20.1 km/h 97% 0.0 mm
09:53 8.0 °C 8.0 °C 1016.8 hPa WSW 17.7 km/h 18.0 km/h 97% 0.0 mm
09:58 8.0 °C 8.0 °C 1016.8 hPa SSW 16.6 km/h 20.9 km/h 97% 0.0 mm
09:59 8.0 °C 8.0 °C 1016.8 hPa WSW 17.2 km/h 20.9 km/h 97% 0.0 mm
10:04 8.1 °C 8.0 °C 1016.8 hPa SW 18.3 km/h 20.9 km/h 97% 0.0 mm
10:07 8.1 °C 8.0 °C 1016.8 hPa SSW 16.6 km/h 20.9 km/h 97% 0.0 mm
10:12 8.1 °C 8.0 °C 1016.8 hPa SSW 10.1 km/h 19.8 km/h 96% 0.0 mm
10:17 8.1 °C 8.0 °C 1016.8 hPa SSW 11.6 km/h 20.6 km/h 96% 0.0 mm
10:22 8.2 °C 8.0 °C 1016.8 hPa WSW 9.0 km/h 20.6 km/h 96% 0.0 mm
10:24 8.2 °C 8.0 °C 1016.8 hPa South 16.9 km/h 20.6 km/h 95% 0.0 mm
10:29 8.2 °C 7.0 °C 1016.8 hPa South 12.6 km/h 21.2 km/h 94% 0.0 mm
10:30 8.2 °C 7.0 °C 1016.8 hPa SSW 10.1 km/h 21.2 km/h 94% 0.0 mm
10:32 8.2 °C 7.0 °C 1016.8 hPa SSW 12.2 km/h 21.2 km/h 94% 0.0 mm
10:37 8.2 °C 7.0 °C 1016.8 hPa SSW 16.6 km/h 20.6 km/h 94% 0.0 mm
10:39 8.2 °C 7.0 °C 1016.8 hPa SSW 9.7 km/h 20.6 km/h 94% 0.0 mm
10:44 8.1 °C 7.0 °C 1016.1 hPa SSW 16.6 km/h 20.6 km/h 93% 0.0 mm
10:45 8.1 °C 7.0 °C 1016.1 hPa South 20.1 km/h 20.6 km/h 93% 0.0 mm
10:49 8.1 °C 7.0 °C 1016.1 hPa SSW 12.2 km/h 21.9 km/h 93% 0.0 mm
10:51 8.1 °C 7.0 °C 1016.1 hPa South 21.2 km/h 21.9 km/h 93% 0.0 mm
10:56 8.1 °C 7.0 °C 1016.1 hPa SSW 10.1 km/h 27.0 km/h 93% 0.0 mm
11:01 8.0 °C 7.0 °C 1016.1 hPa WSW 14.0 km/h 27.0 km/h 93% 0.0 mm
11:06 8.0 °C 7.0 °C 1016.1 hPa SSW 15.8 km/h 27.7 km/h 93% 0.0 mm
11:07 8.0 °C 7.0 °C 1016.1 hPa South 15.4 km/h 27.7 km/h 93% 0.0 mm
11:08 8.0 °C 7.0 °C 1016.1 hPa SSW 13.7 km/h 27.7 km/h 93% 0.0 mm
11:13 8.0 °C 7.0 °C 1016.1 hPa SW 16.3 km/h 27.7 km/h 93% 0.0 mm
11:14 8.0 °C 7.0 °C 1016.1 hPa South 13.0 km/h 27.7 km/h 93% 0.0 mm
11:17 8.0 °C 7.0 °C 1016.1 hPa SSW 15.8 km/h 24.8 km/h 92% 0.0 mm
11:19 8.0 °C 7.0 °C 1016.1 hPa SSW 17.2 km/h 24.8 km/h 92% 0.0 mm
11:24 8.1 °C 7.0 °C 1016.1 hPa SSW 10.5 km/h 21.2 km/h 92% 0.0 mm
11:25 8.1 °C 7.0 °C 1016.1 hPa SSW 16.9 km/h 21.2 km/h 92% 0.0 mm
11:30 8.1 °C 7.0 °C 1015.1 hPa SSW 9.7 km/h 24.8 km/h 91% 0.0 mm
11:31 8.1 °C 7.0 °C 1015.1 hPa South 16.9 km/h 24.8 km/h 90% 0.0 mm
11:36 8.1 °C 7.0 °C 1015.1 hPa SSW 16.6 km/h 24.8 km/h 89% 0.0 mm
11:40 8.2 °C 6.0 °C 1015.1 hPa SSW 13.7 km/h 22.4 km/h 88% 0.0 mm
11:43 8.2 °C 6.0 °C 1015.1 hPa SW 15.4 km/h 21.2 km/h 88% 0.0 mm
11:47 8.3 °C 7.0 °C 1015.1 hPa SW 12.2 km/h 19.8 km/h 87% 0.0 mm
11:48 8.3 °C 7.0 °C 1015.1 hPa SSW 15.8 km/h 21.2 km/h 87% 0.0 mm
11:53 8.3 °C 6.0 °C 1015.1 hPa South 13.7 km/h 21.2 km/h 86% 0.0 mm
11:55 8.3 °C 6.0 °C 1015.1 hPa South 21.6 km/h 21.6 km/h 86% 0.0 mm
12:00 8.4 °C 6.0 °C 1016.1 hPa SSW 13.7 km/h 23.8 km/h 85% 0.0 mm
12:01 8.4 °C 6.0 °C 1016.1 hPa SSW 8.7 km/h 23.8 km/h 85% 0.0 mm
12:02 8.4 °C 6.0 °C 1016.1 hPa SW 20.6 km/h 23.8 km/h 85% 0.0 mm
12:07 8.4 °C 6.0 °C 1016.1 hPa SSW 16.6 km/h 20.6 km/h 85% 0.0 mm
12:11 8.4 °C 6.0 °C 1014.1 hPa South 17.2 km/h 20.6 km/h 85% 0.0 mm
12:16 8.4 °C 6.0 °C 1014.1 hPa SW 18.0 km/h 20.6 km/h 85% 0.0 mm
12:21 8.4 °C 6.0 °C 1014.1 hPa SSW 10.5 km/h 21.6 km/h 85% 0.0 mm
12:23 8.4 °C 6.0 °C 1014.1 hPa SSW 12.6 km/h 21.6 km/h 85% 0.0 mm
12:28 8.4 °C 6.0 °C 1015.1 hPa SSW 9.7 km/h 30.9 km/h 85% 0.0 mm
12:30 8.4 °C 6.0 °C 1015.1 hPa SSW 15.8 km/h 30.9 km/h 86% 0.0 mm
12:33 8.4 °C 6.0 °C 1015.1 hPa SW 9.7 km/h 30.9 km/h 86% 0.0 mm
12:36 8.4 °C 6.0 °C 1015.1 hPa South 16.9 km/h 17.2 km/h 86% 0.0 mm
12:38 8.4 °C 6.0 °C 1015.1 hPa SSW 17.2 km/h 17.2 km/h 86% 0.0 mm
12:43 8.4 °C 6.0 °C 1014.1 hPa South 13.7 km/h 17.7 km/h 86% 0.0 mm
12:44 8.4 °C 6.0 °C 1014.1 hPa South 14.0 km/h 17.7 km/h 86% 0.0 mm
12:49 8.3 °C 7.0 °C 1014.1 hPa South 13.0 km/h 31.4 km/h 87% 0.0 mm
12:50 8.3 °C 7.0 °C 1014.1 hPa SSW 17.2 km/h 31.4 km/h 87% 0.0 mm
12:55 8.4 °C 7.0 °C 1014.1 hPa South 12.2 km/h 31.4 km/h 87% 0.0 mm
12:58 8.4 °C 7.0 °C 1013.1 hPa SSW 14.0 km/h 24.5 km/h 87% 0.0 mm
13:03 8.4 °C 7.0 °C 1013.1 hPa South 17.7 km/h 24.5 km/h 88% 0.0 mm
13:05 8.4 °C 7.0 °C 1013.1 hPa SSW 11.9 km/h 23.8 km/h 88% 0.0 mm
13:06 8.4 °C 7.0 °C 1013.1 hPa SSE 22.4 km/h 23.8 km/h 88% 0.0 mm
13:11 8.4 °C 7.0 °C 1013.1 hPa South 15.8 km/h 23.8 km/h 88% 0.0 mm
13:12 8.4 °C 7.0 °C 1013.1 hPa South 20.1 km/h 23.8 km/h 88% 0.0 mm
13:13 8.4 °C 7.0 °C 1013.1 hPa South 21.9 km/h 25.3 km/h 88% 0.0 mm
13:18 8.4 °C 7.0 °C 1013.1 hPa SSW 12.2 km/h 25.3 km/h 88% 0.0 mm
13:19 8.4 °C 7.0 °C 1013.1 hPa SSW 14.0 km/h 25.3 km/h 88% 0.0 mm
13:24 8.3 °C 7.0 °C 1013.1 hPa SSW 13.7 km/h 23.3 km/h 89% 0.0 mm
13:25 8.3 °C 7.0 °C 1013.1 hPa SSE 12.2 km/h 23.3 km/h 89% 0.0 mm
13:27 8.3 °C 7.0 °C 1012.1 hPa WSW 12.6 km/h 23.3 km/h 89% 0.0 mm
13:32 8.3 °C 7.0 °C 1012.1 hPa South 13.0 km/h 31.4 km/h 89% 0.0 mm
13:34 8.3 °C 7.0 °C 1012.1 hPa SSW 15.8 km/h 31.4 km/h 89% 0.0 mm
13:39 8.3 °C 7.0 °C 1012.1 hPa South 12.2 km/h 31.4 km/h 89% 0.0 mm
13:41 8.3 °C 7.0 °C 1013.1 hPa South 16.3 km/h 23.0 km/h 89% 0.0 mm
13:42 8.2 °C 7.0 °C 1013.1 hPa SW 15.1 km/h 23.0 km/h 89% 0.0 mm
13:47 8.2 °C 7.0 °C 1013.1 hPa SSW 13.7 km/h 23.0 km/h 90% 0.0 mm
13:49 8.2 °C 7.0 °C 1013.1 hPa South 16.3 km/h 21.2 km/h 90% 0.0 mm
13:54 8.2 °C 7.0 °C 1013.1 hPa SSW 10.5 km/h 24.8 km/h 89% 0.0 mm
13:59 8.1 °C 7.0 °C 1013.1 hPa South 18.0 km/h 26.7 km/h 89% 0.0 mm
14:05 8.2 °C 7.0 °C 1013.1 hPa SSW 20.9 km/h 26.7 km/h 89% 0.0 mm
14:11 8.2 °C 6.0 °C 1013.1 hPa SSW 15.8 km/h 27.4 km/h 88% 0.0 mm
14:16 8.1 °C 6.0 °C 1013.1 hPa South 14.8 km/h 27.7 km/h 88% 0.0 mm
14:21 8.1 °C 7.0 °C 1013.1 hPa South 10.5 km/h 27.7 km/h 89% 0.0 mm
14:22 8.2 °C 7.0 °C 1013.1 hPa SW 16.3 km/h 27.7 km/h 89% 0.0 mm
14:27 8.1 °C 7.0 °C 1012.1 hPa SSW 21.2 km/h 27.7 km/h 89% 0.0 mm
14:30 8.1 °C 7.0 °C 1012.1 hPa SSE 16.6 km/h 27.7 km/h 89% 0.0 mm
14:35 8.1 °C 6.0 °C 1012.1 hPa SSW 15.4 km/h 27.7 km/h 88% 0.0 mm
14:38 8.1 °C 7.0 °C 1012.1 hPa SSW 26.7 km/h 26.7 km/h 89% 0.0 mm
14:43 8.0 °C 7.0 °C 1012.1 hPa SSW 28.0 km/h 28.0 km/h 89% 0.0 mm
14:44 8.0 °C 7.0 °C 1012.1 hPa SW 20.9 km/h 28.0 km/h 89% 0.0 mm
14:50 8.0 °C 7.0 °C 1012.1 hPa South 22.4 km/h 28.0 km/h 89% 0.0 mm
14:51 8.0 °C 7.0 °C 1012.1 hPa SSW 24.8 km/h 28.0 km/h 89% 0.0 mm
14:56 8.0 °C 7.0 °C 1012.1 hPa SSW 16.9 km/h 27.7 km/h 89% 0.0 mm
14:59 8.0 °C 7.0 °C 1012.1 hPa SSW 20.9 km/h 27.7 km/h 89% 0.0 mm
15:04 8.0 °C 7.0 °C 1012.1 hPa South 9.3 km/h 28.0 km/h 90% 0.0 mm
15:05 8.0 °C 7.0 °C 1012.1 hPa SSW 12.2 km/h 28.0 km/h 90% 0.0 mm
15:10 8.0 °C 7.0 °C 1012.1 hPa South 12.2 km/h 28.0 km/h 90% 0.0 mm
15:12 7.9 °C 7.0 °C 1011.1 hPa SSW 20.6 km/h 28.0 km/h 91% 0.0 mm
15:17 8.0 °C 7.0 °C 1011.1 hPa SSW 15.4 km/h 25.9 km/h 91% 0.0 mm
15:18 8.0 °C 7.0 °C 1011.1 hPa SSW 8.7 km/h 25.9 km/h 91% 0.0 mm
15:23 8.0 °C 7.0 °C 1011.1 hPa SSE 16.9 km/h 25.9 km/h 91% 0.0 mm
15:28 8.0 °C 7.0 °C 1010.0 hPa South 17.7 km/h 23.8 km/h 90% 0.0 mm
15:30 8.0 °C 7.0 °C 1010.0 hPa South 14.0 km/h 23.8 km/h 90% 0.0 mm
15:31 8.0 °C 7.0 °C 1010.0 hPa SSW 12.2 km/h 23.8 km/h 90% 0.0 mm
15:36 7.9 °C 7.0 °C 1010.0 hPa South 20.9 km/h 23.8 km/h 91% 0.0 mm
15:39 7.9 °C 7.0 °C 1010.0 hPa SSW 14.8 km/h 21.6 km/h 91% 0.0 mm
15:44 7.9 °C 7.0 °C 1012.1 hPa South 23.8 km/h 23.8 km/h 91% 0.0 mm
15:47 7.9 °C 7.0 °C 1012.1 hPa South 20.1 km/h 24.8 km/h 92% 0.0 mm
15:49 7.9 °C 7.0 °C 1012.1 hPa South 16.6 km/h 28.0 km/h 92% 0.0 mm
15:55 7.7 °C 6.0 °C 1012.1 hPa SSW 12.2 km/h 28.0 km/h 92% 0.0 mm
15:57 7.7 °C 6.0 °C 1011.1 hPa South 20.6 km/h 28.0 km/h 92% 0.0 mm
16:00 7.6 °C 6.0 °C 1011.1 hPa South 14.3 km/h 22.4 km/h 92% 0.0 mm
16:01 7.6 °C 6.0 °C 1011.1 hPa SSE 14.0 km/h 22.4 km/h 92% 0.0 mm
16:03 7.6 °C 6.0 °C 1011.1 hPa South 13.0 km/h 23.0 km/h 92% 0.0 mm
16:08 7.5 °C 7.0 °C 1011.1 hPa South 13.0 km/h 23.0 km/h 93% 0.0 mm
16:13 7.5 °C 7.0 °C 1011.1 hPa SSW 11.9 km/h 22.7 km/h 93% 0.0 mm
16:18 7.5 °C 7.0 °C 1011.1 hPa WSW 11.9 km/h 24.5 km/h 93% 0.0 mm
16:19 7.5 °C 7.0 °C 1011.1 hPa SSW 13.0 km/h 24.5 km/h 93% 0.0 mm
16:25 7.4 °C 6.0 °C 1011.1 hPa WSW 14.8 km/h 22.7 km/h 93% 0.0 mm
16:27 7.4 °C 6.0 °C 1010.0 hPa South 16.6 km/h 20.1 km/h 93% 0.0 mm
16:30 7.4 °C 6.0 °C 1010.0 hPa SSW 16.6 km/h 23.8 km/h 93% 0.0 mm
16:33 7.4 °C 6.0 °C 1010.0 hPa SSE 21.2 km/h 23.8 km/h 93% 0.0 mm
16:38 7.4 °C 6.0 °C 1010.0 hPa SSW 24.8 km/h 25.6 km/h 93% 0.0 mm
16:44 7.4 °C 6.0 °C 1010.0 hPa SSW 17.7 km/h 25.6 km/h 93% 0.0 mm
16:47 7.4 °C 6.0 °C 1010.0 hPa South 17.7 km/h 25.6 km/h 93% 0.0 mm
16:50 7.4 °C 6.0 °C 1010.0 hPa South 14.0 km/h 24.5 km/h 93% 0.0 mm
16:55 7.3 °C 6.0 °C 1010.0 hPa SSW 14.0 km/h 24.8 km/h 93% 0.0 mm
16:57 7.3 °C 6.0 °C 1010.0 hPa SSW 16.3 km/h 24.8 km/h 93% 0.0 mm
17:02 7.3 °C 6.0 °C 1010.0 hPa SSW 16.3 km/h 30.9 km/h 93% 0.0 mm
17:04 7.3 °C 6.0 °C 1010.0 hPa SSW 27.4 km/h 30.9 km/h 93% 0.0 mm
17:08 7.3 °C 6.0 °C 1010.0 hPa SSE 21.2 km/h 30.9 km/h 93% 0.0 mm
17:13 7.3 °C 6.0 °C 1010.0 hPa SSW 17.2 km/h 28.8 km/h 93% 0.0 mm
17:18 7.3 °C 6.0 °C 1010.0 hPa SSW 20.9 km/h 27.0 km/h 93% 0.0 mm
17:20 7.3 °C 6.0 °C 1010.0 hPa SSW 10.5 km/h 27.0 km/h 93% 0.0 mm
17:23 7.3 °C 6.0 °C 1010.0 hPa South 12.2 km/h 27.0 km/h 93% 0.0 mm
17:29 7.2 °C 6.0 °C 1009.0 hPa SW 17.2 km/h 25.6 km/h 93% 0.0 mm
17:34 7.2 °C 6.0 °C 1009.0 hPa SSE 20.6 km/h 27.4 km/h 93% 0.0 mm
17:35 7.2 °C 6.0 °C 1009.0 hPa SSW 17.7 km/h 27.4 km/h 93% 0.0 mm
17:40 7.2 °C 6.0 °C 1009.0 hPa South 13.0 km/h 28.8 km/h 93% 0.0 mm
17:45 7.1 °C 6.0 °C 1009.0 hPa South 20.6 km/h 34.6 km/h 93% 0.0 mm
17:49 7.1 °C 6.0 °C 1009.0 hPa South 24.8 km/h 34.6 km/h 93% 0.0 mm
17:54 7.1 °C 6.0 °C 1009.0 hPa South 23.8 km/h 34.6 km/h 93% 0.0 mm
17:59 7.1 °C 6.0 °C 1009.0 hPa SSW 24.5 km/h 36.0 km/h 93% 0.0 mm
18:03 7.1 °C 6.0 °C 1009.0 hPa SSW 13.0 km/h 36.0 km/h 93% 0.0 mm
18:04 7.1 °C 6.0 °C 1009.0 hPa SSE 21.9 km/h 36.0 km/h 93% 0.0 mm
18:09 7.0 °C 6.0 °C 1009.0 hPa South 20.9 km/h 34.6 km/h 93% 0.0 mm
18:14 7.0 °C 6.0 °C 1008.0 hPa SSW 27.4 km/h 36.0 km/h 93% 0.0 mm
18:16 7.0 °C 6.0 °C 1008.0 hPa SSW 17.7 km/h 36.0 km/h 93% 0.0 mm
18:21 7.0 °C 6.0 °C 1008.0 hPa SSW 21.2 km/h 28.5 km/h 93% 0.0 mm
18:22 7.0 °C 6.0 °C 1008.0 hPa SW 23.8 km/h 28.5 km/h 93% 0.0 mm
18:27 7.0 °C 6.0 °C 1008.0 hPa South 24.8 km/h 28.5 km/h 93% 0.0 mm
18:32 6.9 °C 6.0 °C 1008.0 hPa SSW 14.3 km/h 32.0 km/h 94% 0.0 mm
18:37 6.9 °C 6.0 °C 1008.0 hPa South 26.2 km/h 32.0 km/h 94% 0.0 mm
18:40 6.8 °C 6.0 °C 1008.0 hPa SSW 12.2 km/h 31.7 km/h 94% 0.0 mm
18:45 6.8 °C 6.0 °C 1009.0 hPa SSW 28.0 km/h 30.9 km/h 94% 0.0 mm
18:47 6.8 °C 6.0 °C 1009.0 hPa SSE 17.2 km/h 30.9 km/h 94% 0.0 mm
18:52 6.8 °C 6.0 °C 1009.0 hPa SSW 23.3 km/h 30.9 km/h 94% 0.0 mm
18:55 6.8 °C 6.0 °C 1009.0 hPa South 23.8 km/h 28.0 km/h 94% 0.0 mm
19:00 6.7 °C 6.0 °C 1009.0 hPa SSE 10.5 km/h 28.5 km/h 94% 0.0 mm
19:01 6.7 °C 6.0 °C 1009.0 hPa South 24.8 km/h 28.5 km/h 94% 0.0 mm
19:06 6.7 °C 6.0 °C 1009.0 hPa SSW 23.8 km/h 30.2 km/h 94% 0.0 mm
19:08 6.7 °C 6.0 °C 1009.0 hPa South 16.9 km/h 30.2 km/h 94% 0.0 mm
19:13 6.7 °C 6.0 °C 1008.0 hPa SSW 15.1 km/h 34.3 km/h 94% 0.0 mm
19:18 6.7 °C 6.0 °C 1008.0 hPa SSW 19.8 km/h 34.3 km/h 94% 0.0 mm
19:19 6.7 °C 6.0 °C 1008.0 hPa SSW 16.6 km/h 34.3 km/h 94% 0.0 mm
19:23 6.6 °C 6.0 °C 1008.0 hPa SSW 27.7 km/h 28.0 km/h 94% 0.0 mm
19:28 6.6 °C 6.0 °C 1008.0 hPa South 31.7 km/h 31.7 km/h 95% 0.0 mm
19:29 6.6 °C 6.0 °C 1008.0 hPa SSW 21.2 km/h 35.6 km/h 94% 0.0 mm
19:35 6.6 °C 6.0 °C 1008.0 hPa South 13.7 km/h 35.6 km/h 95% 0.0 mm
19:36 6.5 °C 6.0 °C 1008.0 hPa SSW 19.5 km/h 35.6 km/h 95% 0.0 mm
19:41 6.5 °C 6.0 °C 1007.0 hPa South 25.3 km/h 27.7 km/h 95% 0.0 mm
19:42 6.5 °C 6.0 °C 1007.0 hPa SSW 16.6 km/h 27.7 km/h 95% 0.0 mm
19:47 6.4 °C 6.0 °C 1007.0 hPa South 28.5 km/h 38.5 km/h 95% 0.0 mm
19:48 6.4 °C 6.0 °C 1007.0 hPa South 20.6 km/h 38.5 km/h 95% 0.0 mm
19:53 6.4 °C 6.0 °C 1007.0 hPa SSE 17.7 km/h 38.5 km/h 95% 0.0 mm
19:58 6.4 °C 6.0 °C 1007.0 hPa South 20.6 km/h 30.9 km/h 95% 0.0 mm
20:03 6.4 °C 6.0 °C 1007.0 hPa SSE 16.3 km/h 30.9 km/h 95% 0.0 mm
20:04 6.4 °C 6.0 °C 1007.0 hPa South 19.8 km/h 30.9 km/h 95% 0.0 mm
20:08 6.3 °C 6.0 °C 1007.0 hPa SSW 22.7 km/h 29.9 km/h 95% 0.0 mm
20:10 6.3 °C 6.0 °C 1007.0 hPa SSW 16.6 km/h 29.9 km/h 95% 0.0 mm
20:14 6.3 °C 6.0 °C 1007.0 hPa SSE 27.4 km/h 29.9 km/h 95% 0.0 mm
20:15 6.3 °C 6.0 °C 1007.0 hPa SSE 22.7 km/h 33.8 km/h 95% 0.0 mm
20:20 6.3 °C 6.0 °C 1007.0 hPa South 27.4 km/h 33.8 km/h 95% 0.0 mm
20:23 6.3 °C 6.0 °C 1007.0 hPa South 24.5 km/h 33.8 km/h 95% 0.0 mm
20:28 6.2 °C 6.0 °C 1007.0 hPa South 13.0 km/h 30.6 km/h 95% 0.0 mm
20:29 6.2 °C 6.0 °C 1007.0 hPa SSW 17.2 km/h 30.6 km/h 95% 0.0 mm
20:34 6.1 °C 6.0 °C 1007.0 hPa South 18.0 km/h 29.9 km/h 95% 0.0 mm
20:39 6.1 °C 6.0 °C 1007.0 hPa SSE 20.9 km/h 29.9 km/h 95% 0.0 mm
20:40 6.1 °C 6.0 °C 1007.0 hPa South 25.9 km/h 29.9 km/h 95% 0.0 mm
20:41 6.0 °C 6.0 °C 1007.0 hPa South 25.9 km/h 29.9 km/h 95% 0.0 mm
20:46 6.0 °C 6.0 °C 1007.0 hPa SSW 13.7 km/h 31.7 km/h 95% 0.0 mm
20:47 6.0 °C 6.0 °C 1007.0 hPa SSW 24.8 km/h 31.7 km/h 95% 0.0 mm
20:52 5.9 °C 6.0 °C 1007.0 hPa SSW 17.2 km/h 33.1 km/h 96% 0.0 mm
20:55 5.9 °C 6.0 °C 1007.0 hPa South 24.5 km/h 39.6 km/h 96% 0.0 mm
21:00 5.9 °C 6.0 °C 1006.0 hPa SSE 15.4 km/h 40.7 km/h 96% 0.0 mm
21:02 5.9 °C 6.0 °C 1006.0 hPa SSW 17.7 km/h 40.7 km/h 96% 0.0 mm
21:03 5.9 °C 6.0 °C 1006.0 hPa South 16.3 km/h 40.7 km/h 96% 0.0 mm
21:08 5.9 °C 6.0 °C 1006.0 hPa SSW 28.0 km/h 40.7 km/h 96% 0.0 mm
21:11 5.9 °C 6.0 °C 1006.0 hPa SSW 15.4 km/h 30.9 km/h 96% 0.0 mm
21:16 5.9 °C 6.0 °C 1006.0 hPa South 30.2 km/h 35.6 km/h 96% 0.0 mm
21:21 5.9 °C 6.0 °C 1006.0 hPa SSW 34.6 km/h 35.6 km/h 96% 0.0 mm
21:22 5.9 °C 6.0 °C 1006.0 hPa SSW 24.5 km/h 35.6 km/h 96% 0.0 mm
21:26 5.8 °C 6.0 °C 1005.0 hPa SW 17.7 km/h 34.6 km/h 95% 0.0 mm
21:31 5.8 °C 6.0 °C 1005.0 hPa South 40.4 km/h 40.4 km/h 95% 0.0 mm
21:32 5.8 °C 6.0 °C 1005.0 hPa SSW 13.7 km/h 40.4 km/h 95% 0.0 mm
21:38 5.8 °C 6.0 °C 1005.0 hPa South 15.4 km/h 40.4 km/h 95% 0.0 mm
21:43 5.8 °C 6.0 °C 1005.0 hPa South 20.6 km/h 32.0 km/h 96% 0.0 mm
21:44 5.8 °C 6.0 °C 1005.0 hPa South 24.8 km/h 32.0 km/h 96% 0.0 mm
21:49 5.7 °C 6.0 °C 1005.0 hPa South 20.9 km/h 41.4 km/h 96% 0.0 mm
21:54 5.7 °C 5.0 °C 1005.0 hPa South 24.8 km/h 41.4 km/h 95% 0.0 mm
21:55 5.7 °C 6.0 °C 1005.0 hPa SSW 15.8 km/h 41.4 km/h 96% 0.0 mm
21:56 5.7 °C 6.0 °C 1005.0 hPa SSW 16.9 km/h 41.4 km/h 96% 0.0 mm
22:01 5.7 °C 6.0 °C 1005.0 hPa SSW 28.5 km/h 38.1 km/h 96% 0.0 mm
22:02 5.7 °C 6.0 °C 1005.0 hPa SW 32.0 km/h 38.1 km/h 96% 0.0 mm
22:07 5.7 °C 6.0 °C 1005.0 hPa SSE 21.2 km/h 38.1 km/h 96% 0.0 mm
22:12 5.7 °C 6.0 °C 1005.0 hPa SSW 24.8 km/h 32.3 km/h 96% 0.0 mm
22:14 5.7 °C 6.0 °C 1005.0 hPa SSW 24.5 km/h 32.3 km/h 96% 0.0 mm
22:16 5.7 °C 6.0 °C 1005.0 hPa South 17.7 km/h 32.8 km/h 96% 0.0 mm
22:21 5.6 °C 6.0 °C 1005.0 hPa SSW 19.5 km/h 36.4 km/h 96% 0.0 mm
22:22 5.6 °C 6.0 °C 1005.0 hPa South 23.8 km/h 36.4 km/h 96% 0.0 mm
22:23 5.6 °C 6.0 °C 1005.0 hPa South 20.9 km/h 36.4 km/h 96% 0.0 mm
22:28 5.6 °C 6.0 °C 1003.9 hPa South 20.6 km/h 36.4 km/h 96% 0.0 mm
22:33 5.6 °C 6.0 °C 1003.9 hPa SSW 39.6 km/h 46.0 km/h 96% 0.0 mm
22:34 5.6 °C 5.0 °C 1003.9 hPa SSE 24.5 km/h 46.0 km/h 95% 0.0 mm
22:38 5.6 °C 5.0 °C 1003.9 hPa SSW 19.5 km/h 46.0 km/h 95% 0.0 mm
22:40 5.6 °C 5.0 °C 1003.9 hPa South 21.6 km/h 46.0 km/h 95% 0.0 mm
22:45 5.6 °C 5.0 °C 1003.9 hPa SSE 30.9 km/h 36.7 km/h 95% 0.0 mm
22:47 5.6 °C 5.0 °C 1003.9 hPa South 31.4 km/h 36.7 km/h 95% 0.0 mm
22:52 5.6 °C 5.0 °C 1003.9 hPa SSW 24.8 km/h 33.1 km/h 95% 0.0 mm
22:53 5.6 °C 5.0 °C 1003.9 hPa SSW 17.2 km/h 33.1 km/h 95% 0.0 mm
22:58 5.6 °C 5.0 °C 1002.9 hPa South 20.6 km/h 31.7 km/h 95% 0.0 mm
23:01 5.6 °C 5.0 °C 1002.9 hPa SSW 10.5 km/h 31.7 km/h 95% 0.0 mm
23:02 5.6 °C 5.0 °C 1002.9 hPa South 31.7 km/h 32.3 km/h 95% 0.0 mm
23:07 5.7 °C 5.0 °C 1002.9 hPa South 21.2 km/h 38.5 km/h 95% 0.0 mm
23:10 5.7 °C 5.0 °C 1002.9 hPa South 28.0 km/h 38.5 km/h 95% 0.0 mm
23:15 5.7 °C 5.0 °C 1001.9 hPa SSW 20.6 km/h 39.6 km/h 94% 0.0 mm
23:20 5.7 °C 5.0 °C 1001.9 hPa South 23.8 km/h 39.6 km/h 94% 0.0 mm
23:22 5.7 °C 5.0 °C 1001.9 hPa South 16.9 km/h 39.6 km/h 94% 0.0 mm
23:27 5.7 °C 5.0 °C 1002.9 hPa South 17.2 km/h 42.8 km/h 94% 0.0 mm
23:32 5.7 °C 5.0 °C 1002.9 hPa SSW 18.3 km/h 42.8 km/h 94% 0.0 mm
23:34 5.7 °C 5.0 °C 1002.9 hPa South 27.4 km/h 42.8 km/h 94% 0.0 mm
23:39 5.7 °C 5.0 °C 1002.9 hPa South 30.2 km/h 42.2 km/h 94% 0.0 mm
23:43 5.7 °C 5.0 °C 1002.9 hPa South 27.7 km/h 42.2 km/h 94% 0.0 mm
23:47 5.6 °C 5.0 °C 1002.9 hPa SSW 16.6 km/h 38.9 km/h 94% 0.0 mm
23:51 5.6 °C 5.0 °C 1002.9 hPa SSW 19.8 km/h 38.9 km/h 94% 0.0 mm
23:56 5.6 °C 5.0 °C 1002.9 hPa South 22.7 km/h 37.8 km/h 94% 0.0 mm
23:58 5.6 °C 5.0 °C 1002.9 hPa SSW 28.5 km/h 37.8 km/h 94% 0.0 mm
Données Historique de Météo Turbie

Mise a jour : 24/05/2018 10:18:14
Généré par Cumulus 1.9.4 (1099)